Location: Black Creek
(40.9000°S, 175.5500°E)
Time: 10:52:50
(UTC+00:00)

Tiangong - Visible Passes

Search period start: 10 October 2024 00:00
Search period end: 20 October 2024 00:00
Orbit: 373 x 377 km, 41.5° (Epoch: 10 October)

Date Brightness Start Highest point End Pass type
(mag) Time Alt. Az. Time Alt. Az. Time Alt. Az.
12 Oct -0.4 07:32:07 10° N 07:34:10 16° NNE 07:34:24 16° NE visible
13 Oct -1.5 08:04:32 10° NW 08:07:13 38° N 08:07:13 38° N visible
14 Oct -0.7 08:37:49 10° WNW 08:39:43 33° WNW 08:39:43 33° WNW visible
15 Oct -2.0 07:34:47 10° WNW 07:37:52 56° NNE 07:39:57 19° E visible
15 Oct 0.8 09:11:19 10° W 09:11:58 15° W 09:11:58 15° W visible
16 Oct -2.2 08:08:05 10° W 08:11:15 85° S 08:11:59 49° ESE visible
17 Oct -2.2 07:04:49 10° WNW 07:07:58 75° NNE 07:11:07 10° E visible
17 Oct -1.2 08:41:26 10° W 08:43:49 47° WSW 08:43:49 47° WSW visible
18 Oct -2.1 07:38:03 10° W 07:41:13 79° S 07:43:31 17° E visible
18 Oct 0.7 09:14:40 10° W 09:15:29 17° W 09:15:29 17° W visible
19 Oct -2.2 08:11:14 10° W 08:14:24 88° S 08:15:04 52° E visible
